Weather History for Copper Harbor, MI

Change the Weather History Date:

Sunday, July 14, 2013

  Actual Average Record
Temperature  
Mean Temperature 69 °F -  
Max Temperature 77 °F 69 °F 87 °F (1998)
Min Temperature 63 °F 53 °F 46 °F (1996)
Cooling Degree Days 4    
Growing Degree Days 19 (Base 50)    
Moisture  
Dew Point 62 °F    
Average Humidity 75    
Maximum Humidity 90    
Minimum Humidity 58    
Precipitation  
Precipitation 0.00 in - - ()
Sea Level Pressure  
Sea Level Pressure 30.14 in    
Wind  
Wind Speed 5 mph (WSW)    
Max Wind Speed 9 mph    
Max Gust Speed 18 mph    
Averages and records for this station are not official NWS values.
T = Trace of Precipitation, MM = Missing Value Source: NWS Daily Summary

Daily Weather History Graph

Daily Weather History Graph

Search for Another Location

Airport:

Trip Planner

Search our weather history database for the weather conditions in past years. The results will help you decide how hot, cold, wet, or windy it might be!

Date:

Astronomy

Jul. 14, 2013 Rise Set
Actual Time 6:09 AM EDT 9:45 PM EDT
Civil Twilight 5:30 AM EDT 10:23 PM EDT
Nautical Twilight 4:38 AM EDT 11:15 PM EDT
Astronomical Twilight 3:27 AM EDT 12:25 AM EDT
Moon 12:56 PM EDT (7/14) No Moon Set
Length of Visible Light 16h 53m
Length of Day
15h 36m
Waxing Crescent, 35% of the Moon is Illuminated
Jul 14
Waxing Crescent
Jul 15
First Quarter
Jul 22
Full
Jul 29
Last Quarter
Aug 6
New

Hourly Weather History & Observations

Time (EDT) Temp. Dew Point Humidity Pressure Visibility Wind Dir Wind Speed Gust Speed Precip Events Conditions
12:51 AM 75.9 °F 61.0 °F 60% 30.07 in - West 6.9 mph - N/A   Unknown
1:51 AM 75.9 °F 60.1 °F 58% 30.09 in - Variable 6.9 mph - N/A   Unknown
2:51 AM 75.0 °F 60.1 °F 60% 30.09 in - Variable 5.8 mph - N/A   Unknown
3:51 AM 73.0 °F 61.0 °F 66% 30.10 in - WSW 8.1 mph - N/A   Unknown
4:51 AM 71.1 °F 62.1 °F 73% 30.10 in - SW 5.8 mph - N/A   Unknown
5:51 AM 69.1 °F 63.0 °F 81% 30.11 in - WSW 9.2 mph 18.4 mph N/A   Unknown
6:51 AM 69.1 °F 63.0 °F 81% 30.12 in - WSW 9.2 mph - N/A   Unknown
7:51 AM 70.0 °F 62.1 °F 76% 30.14 in - Calm Calm - N/A   Unknown
8:51 AM 63.0 °F 57.9 °F 84% 30.15 in - NNW 4.6 mph - N/A   Unknown
9:51 AM 64.9 °F 60.1 °F 84% 30.14 in - Calm Calm - N/A   Unknown
10:51 AM 72.0 °F 64.0 °F 76% 30.14 in - SW 3.5 mph - N/A   Unknown
11:51 AM 71.1 °F 63.0 °F 75% 30.16 in - Variable 3.5 mph - N/A   Unknown
12:51 PM 71.1 °F 63.0 °F 75% 30.16 in - WSW 3.5 mph - N/A   Unknown
1:51 PM 73.0 °F 64.0 °F 73% 30.16 in - North 3.5 mph - N/A   Unknown
2:51 PM 71.1 °F 63.0 °F 75% 30.16 in - Calm Calm - N/A   Unknown
3:51 PM 66.9 °F 61.0 °F 81% 30.16 in - Calm Calm - N/A   Unknown
4:51 PM 71.1 °F 62.1 °F 73% 30.16 in - Calm Calm - N/A   Unknown
5:51 PM 75.9 °F 64.0 °F 67% 30.15 in - Calm Calm - N/A   Unknown
6:51 PM 73.0 °F 62.1 °F 68% 30.15 in - Calm Calm - N/A   Unknown
7:51 PM 70.0 °F 61.0 °F 73% 30.16 in - Calm Calm - N/A   Unknown
8:51 PM 72.0 °F 66.0 °F 81% 30.17 in - Calm Calm - N/A   Unknown
9:51 PM 68.0 °F 64.0 °F 87% 30.18 in - SW 4.6 mph - N/A   Unknown
10:51 PM 64.9 °F 62.1 °F 90% 30.20 in - Calm Calm - N/A   Unknown
11:51 PM 66.0 °F 63.0 °F 90% 30.20 in - SW 3.5 mph - N/A   Unknown